Location: Laupheim
(48.2265°N, 9.8829°E)
Time: 01:40:56
(UTC+01:00)

OTV 5 (USA 277) - Visible Passes

Search period start: 23 February 2018 00:00
Search period end: 05 March 2018 00:00
Orbit: 404 x 417 km, 43.0° (Epoch: 07 September)

Date Brightness Start Highest point End Pass type
(mag) Time Alt. Az. Time Alt. Az. Time Alt. Az.
23 Feb ? 05:52:17 11° SSW 05:54:37 20° SSE 05:57:07 10° ESE visible
24 Feb ? 05:03:43 16° SSE 05:03:43 16° SSE 05:05:50 10° ESE visible
24 Feb ? 06:37:30 10° WSW 06:40:28 31° S 06:43:26 10° ESE visible
25 Feb ? 05:47:48 18° SW 05:49:30 28° S 05:52:24 10° ESE visible
26 Feb ? 04:59:06 23° SSE 04:59:06 23° SSE 05:01:19 10° ESE visible
26 Feb ? 06:32:27 10° WSW 06:35:27 32° S 06:38:26 10° ESE visible
27 Feb ? 05:43:07 23° SW 05:44:29 32° S 05:47:28 10° ESE visible
28 Feb ? 04:54:23 27° SE 04:54:23 27° SE 04:56:29 10° ESE visible
28 Feb ? 06:27:33 10° WSW 06:30:24 27° SSW 06:33:15 10° SE visible
01 Mar ? 05:38:23 24° SW 05:39:27 30° S 05:42:23 10° SE visible
02 Mar ? 04:49:40 24° SE 04:49:40 24° SE 04:51:29 10° ESE visible
02 Mar ? 06:22:52 10° WSW 06:25:18 19° SSW 06:27:42 10° SSE visible
03 Mar ? 05:33:44 22° SW 05:34:23 23° SSW 05:37:03 10° SE visible
04 Mar ? 04:45:06 18° SSE 04:45:06 18° SSE 04:46:18 10° SE visible
04 Mar ? 06:19:02 10° SW 06:20:05 11° SSW 06:21:08 10° S visible
